Location: Makakahi
(40.6833°S, 175.6000°E)
Time: 00:08:15
(UTC+00:00)

Cosmos 2297 Rocket - Visible Passes

Search period start: 05 October 2024 00:00
Search period end: 15 October 2024 00:00
Orbit: 837 x 844 km, 71.0° (Epoch: 04 October)

Date Brightness Start Highest point End Pass type
(mag) Time Alt. Az. Time Alt. Az. Time Alt. Az.
05 Oct 4.2 08:44:27 10° SSE 08:47:10 14° SE 08:47:10 14° SE visible
05 Oct 4.1 10:26:34 10° SSW 10:28:58 26° SSW 10:28:58 26° SSW visible
06 Oct 4.2 08:29:18 10° SSE 08:31:56 13° SE 08:32:18 13° SE visible
06 Oct 3.8 10:11:14 10° SSW 10:14:06 31° SSW 10:14:06 31° SSW visible
07 Oct 4.2 08:14:09 10° SSE 08:16:32 13° SE 08:17:28 12° SE visible
07 Oct 3.5 09:55:53 10° SSW 09:59:16 37° S 09:59:16 37° S visible
08 Oct 4.2 07:59:02 10° SSE 08:01:07 12° SE 08:02:39 11° ESE visible
08 Oct 3.1 09:40:33 10° SSW 09:44:27 43° S 09:44:27 43° S visible
09 Oct 4.3 07:43:59 10° SSE 07:45:42 11° SE 07:47:26 10° ESE visible
09 Oct 2.8 09:25:13 10° SSW 09:29:40 51° S 09:29:40 51° S visible
09 Oct 4.8 11:10:45 10° WSW 11:11:28 12° WSW 11:11:28 12° WSW visible
10 Oct 4.3 07:29:02 10° SSE 07:30:18 11° SE 07:31:33 10° SE visible
10 Oct 2.5 09:09:53 10° SSW 09:14:55 57° SSE 09:14:55 57° SSE visible
10 Oct 4.6 10:55:15 10° WSW 10:56:44 15° WSW 10:56:44 15° WSW visible
11 Oct 4.4 07:14:24 10° SE 07:14:52 10° SE 07:15:20 10° SE visible
11 Oct 2.3 08:54:33 10° SSW 09:00:12 58° ESE 09:00:13 58° ESE visible
11 Oct 4.4 10:39:46 10° SW 10:42:01 17° WSW 10:42:01 17° WSW visible
12 Oct 2.3 08:39:14 10° SSW 08:44:50 55° ESE 08:45:33 51° E visible
12 Oct 4.2 10:24:17 10° SW 10:27:21 20° W 10:27:21 20° W visible
13 Oct 2.5 08:23:54 10° SSW 08:29:29 52° ESE 08:30:55 41° ENE visible
13 Oct 4.1 10:08:49 10° SW 10:12:44 22° W 10:12:44 22° W visible
14 Oct 2.5 08:08:35 10° SSW 08:14:06 49° ESE 08:16:21 32° ENE visible
14 Oct 3.9 09:53:21 10° SW 09:57:46 23° W 09:58:09 23° WNW visible
